K3MV-13 Weather Reports


time (UTC)temp
C
wind
direction
speed
KPH
gust
KPH
rain 1hr
cm
rain 24hr
cm
rain mn
cm
humidity
%
barometer
mb
20260509201402 15 196 1.6 1.6 0.00 0.28 0.28 64 1009.6
20260509200900 15 264 3.2 3.2 0.00 0.28 0.28 63 1009.5
20260509200359 15 218 6.4 9.7 0.00 0.28 0.28 62 1009.7
20260509195856 16 157 3.2 4.8 0.00 0.28 0.28 63 1009.6
20260509195356 15 175 1.6 3.2 0.00 0.28 0.28 64 1009.6
20260509194856 15 167 1.6 1.6 0.00 0.28 0.28 64 1009.8
20260509194353 15 274 3.2 4.8 0.00 0.28 0.28 65 1009.7
20260509193850 16 228 1.6 3.2 0.00 0.28 0.28 63 1009.9
20260509193349 15 193 1.6 1.6 0.00 0.28 0.28 69 1009.9
20260509192846 15 276 6.4 9.7 0.00 0.28 0.28 64 1009.8
20260509192342 15 240 4.8 6.4 0.00 0.28 0.28 67 1009.9
20260509191837 15 293 3.2 4.8 0.00 0.28 0.28 65 1009.9
20260509191333 15 242 4.8 9.7 0.00 0.28 0.28 68 1009.9
20260509190830 15 270 3.2 3.2 0.00 0.28 0.28 68 1010.0
20260509190327 15 190 0.0 1.6 0.00 0.28 0.28 71 1010.1
20260509185824 15 248 1.6 1.6 0.00 0.28 0.28 73 1010.0
20260509185320 15 210 3.2 4.8 0.00 0.28 0.28 75 1010.0
20260509184818 14 291 3.2 4.8 0.00 0.28 0.28 77 1010.1
20260509184315 13 2 0.0 0.0 0.00 0.28 0.28 79 1010.0
20260509183812 13 248 0.0 1.6 0.00 0.28 0.28 79 1010.2
20260509183307 13 291 3.2 3.2 0.00 0.28 0.28 80 1010.3
20260509182802 12 182 0.0 0.0 0.00 0.28 0.28 83 1010.1
20260509182300 12 344 0.0 0.0 0.00 0.28 0.28 83 1010.1
20260509181757 12 307 1.6 1.6 0.00 0.28 0.28 85 1010.0
20260509181255 12 196 0.0 0.0 0.00 0.28 0.28 85 1010.0
20260509180752 12 141 1.6 1.6 0.00 0.28 0.28 85 1010.0
20260509180248 12 187 1.6 1.6 0.00 0.28 0.28 86 1010.0
20260509175744 12 185 0.0 0.0 0.00 0.28 0.28 87 1010.1
20260509175241 12 206 0.0 0.0 0.00 0.28 0.28 87 1010.1
20260509174737 11 175 0.0 1.6 0.00 0.28 0.28 86 1010.1
20260509174232 11 200 0.0 0.0 0.00 0.28 0.28 87 1010.2
20260509173729 11 211 1.6 1.6 0.00 0.28 0.28 88 1010.2
20260509173224 11 189 0.0 1.6 0.00 0.28 0.28 87 1010.2
20260509172721 11 210 0.0 0.0 0.00 0.28 0.28 87 1010.1
20260509172217 11 184 1.6 1.6 0.00 0.28 0.28 87 1010.0
20260509171713 11 206 0.0 0.0 0.00 0.28 0.28 87 1010.1
20260509171209 11 167 0.0 0.0 0.00 0.28 0.28 86 1010.1
20260509170706 11 203 1.6 1.6 0.00 0.28 0.28 87 1010.1
20260509170202 11 196 1.6 4.8 0.00 0.28 0.28 87 1010.2
20260509165701 11 223 1.6 1.6 0.18 0.28 0.28 87 1010.1
20260509165156 11 169 1.6 3.2 0.18 0.28 0.28 87 1010.2
20260509164652 11 226 1.6 1.6 0.00 0.25 0.25 88 1010.3
20260509164148 11 219 0.0 1.6 0.00 0.25 0.25 87 1010.4
20260509163646 11 199 1.6 1.6 0.00 0.25 0.25 87 1010.2
20260509163141 11 215 3.2 3.2 0.00 0.25 0.25 87 1010.3
20260509162639 11 164 1.6 3.2 0.00 0.25 0.25 87 1010.4
20260509162134 11 216 4.8 4.8 0.00 0.25 0.25 86 1010.4
20260509161631 11 205 0.0 1.6 0.00 0.25 0.25 87 1010.4
20260509161126 11 214 3.2 3.2 0.00 0.25 0.25 89 1010.5
20260509160622 11 214 4.8 4.8 0.00 0.25 0.25 90 1010.6
20260509160118 11 207 6.4 9.7 0.00 0.25 0.25 91 1010.6
20260509155614 10 219 3.2 3.2 0.00 0.25 0.25 91 1010.6
20260509155110 10 197 3.2 4.8 0.00 0.25 0.25 91 1010.6
20260509154606 10 196 6.4 6.4 0.00 0.25 0.25 91 1010.7
20260509154104 10 201 3.2 3.2 0.00 0.25 0.25 92 1010.7
20260509153601 10 219 3.2 4.8 0.00 0.25 0.25 92 1010.8
20260509153058 10 197 1.6 3.2 0.00 0.25 0.25 92 1010.9
20260509152553 10 222 1.6 1.6 0.00 0.25 0.25 92 1010.6
20260509152051 10 219 1.6 1.6 0.00 0.25 0.25 92 1010.7
20260509151547 10 199 1.6 3.2 0.00 0.25 0.25 91 1010.7
20260509151045 10 231 3.2 3.2 0.00 0.25 0.25 91 1010.6
20260509150542 10 234 3.2 4.8 0.13 0.25 0.25 91 1010.6
20260509150041 10 186 1.6 1.6 0.13 0.25 0.25 91 1010.7
20260509145536 10 193 1.6 1.6 0.00 0.23 0.23 92 1010.5
20260509145031 10 227 0.0 0.0 0.00 0.23 0.23 92 1010.5
20260509144528 10 162 1.6 3.2 0.00 0.23 0.23 91 1010.6
20260509144026 10 205 1.6 1.6 0.00 0.23 0.23 91 1010.7
20260509143522 10 203 0.0 1.6 0.00 0.23 0.23 91 1010.8
20260509143021 10 191 3.2 3.2 0.00 0.23 0.23 91 1010.7
20260509142515 10 214 1.6 3.2 0.00 0.23 0.23 91 1010.7
20260509142011 10 223 3.2 6.4 0.00 0.23 0.23 91 1010.6
20260509141508 10 246 3.2 4.8 0.00 0.23 0.23 92 1010.7
20260509141005 10 232 3.2 4.8 0.00 0.23 0.23 92 1010.7
20260509140501 10 206 0.0 1.6 0.00 0.23 0.23 92 1010.8
20260509140000 10 215 3.2 4.8 0.00 0.23 0.23 92 1010.7
20260509135456 10 202 3.2 3.2 0.00 0.23 0.23 92 1010.5
20260509134954 10 183 3.2 3.2 0.00 0.23 0.23 92 1010.8
20260509134451 10 205 1.6 1.6 0.00 0.23 0.23 92 1010.9
20260509133949 10 163 1.6 3.2 0.00 0.23 0.23 93 1010.9
20260509133445 10 224 1.6 1.6 0.18 0.23 0.23 93 1011.2
20260509132943 10 276 3.2 4.8 0.18 0.23 0.23 92 1011.2
20260509132441 10 220 8.0 9.7 0.00 0.20 0.20 93 1011.0
20260509131938 9 210 3.2 3.2 0.13 0.20 0.20 92 1011.0
20260509131435 9 226 0.0 0.0 0.13 0.20 0.20 93 1011.2
20260509130932 9 195 1.6 3.2 0.00 0.18 0.18 93 1010.9
20260509130427 9 191 0.0 0.0 0.18 0.18 0.18 93 1011.0
20260509125924 10 196 0.0 1.6 0.18 0.18 0.18 93 1011.2
20260509125421 10 207 0.0 0.0 0.00 0.15 0.15 93 1010.9
20260509124916 9 181 0.0 1.6 0.00 0.15 0.15 93 1011.2
20260509124414 9 190 0.0 1.6 0.00 0.15 0.15 93 1011.3
20260509123912 9 192 1.6 1.6 0.00 0.15 0.15 93 1011.0
20260509123408 9 203 0.0 0.0 0.00 0.15 0.15 93 1011.2
20260509122904 9 182 0.0 1.6 0.13 0.15 0.15 93 1011.2
20260509122401 9 192 1.6 1.6 0.13 0.15 0.15 93 1011.3
20260509121858 9 213 1.6 3.2 0.18 0.13 0.13 93 1011.3
20260509121355 9 181 0.0 0.0 0.18 0.13 0.13 93 1011.3
20260509120853 9 203 3.2 3.2 0.18 0.13 0.13 92 1011.2
20260509120351 9 204 3.2 3.2 0.00 0.10 0.10 93 1011.2
20260509115848 9 203 1.6 1.6 0.00 0.10 0.10 93 1011.2
20260509115345 8 197 1.6 1.6 0.00 0.10 0.10 93 1011.3
20260509114843 8 206 0.0 0.0 0.13 0.10 0.10 93 1011.3
20260509114342 8 189 3.2 4.8 0.13 0.10 0.10 93 1011.3
20260509113841 8 210 1.6 3.2 0.00 0.08 0.08 93 1011.2
20260509113337 8 182 1.6 1.6 0.00 0.08 0.08 93 1011.5
20260509112834 8 174 1.6 1.6 0.00 0.08 0.08 93 1011.0
20260509112331 8 187 0.0 0.0 0.00 0.08 0.08 93 1011.0
20260509111828 8 190 1.6 3.2 0.00 0.08 0.08 93 1010.9
20260509111325 8 181 1.6 1.6 0.00 0.08 0.08 93 1011.2
20260509110823 8 166 1.6 1.6 0.00 0.08 0.08 92 1010.8
20260509110319 8 163 0.0 0.0 0.18 0.08 0.08 92 1010.9
20260509105817 8 164 0.0 0.0 0.18 0.08 0.08 92 1010.9
20260509105315 8 177 1.6 1.6 0.00 0.05 0.05 92 1010.8
20260509104811 8 211 4.8 6.4 0.13 0.05 0.05 91 1011.2
20260509104308 8 163 3.2 3.2 0.13 0.05 0.05 91 1011.0
20260509103806 8 185 4.8 6.4 0.13 0.05 0.05 91 1011.2
20260509103303 8 160 3.2 3.2 0.00 0.03 0.03 91 1011.4
20260509102802 8 166 4.8 4.8 0.00 0.03 0.03 90 1011.4
20260509102258 8 211 4.8 6.4 0.18 0.03 0.03 90 1011.4
20260509101754 8 189 3.2 3.2 0.18 0.03 0.03 90 1011.3
20260509101250 8 163 3.2 3.2 0.00 0.00 0.00 90 1011.3
20260509100748 8 182 3.2 3.2 0.00 0.00 0.00 89 1011.5
20260509100246 8 156 1.6 1.6 0.13 0.00 0.00 89 1011.4
20260509095742 8 161 1.6 1.6 0.13 0.10 0.10 89 1011.3
20260509095239 8 146 0.0 0.0 0.18 0.08 0.08 88 1011.3
20260509094736 8 194 0.0 0.0 0.18 0.08 0.08 88 1011.4
20260509094233 8 194 0.0 0.0 0.00 0.05 0.05 87 1011.7
20260509093731 8 194 0.0 0.0 0.18 0.05 0.05 86 1011.6
20260509093228 8 251 0.0 1.6 0.18 0.05 0.05 86 1011.5
20260509092726 8 244 4.8 6.4 0.00 0.03 0.03 86 1011.6
20260509092224 8 196 0.0 0.0 0.13 0.03 0.03 86 1011.8
20260509091722 8 182 0.0 0.0 0.13 0.03 0.03 86 1011.5
20260509091217 8 182 0.0 1.6 0.13 0.03 0.03 85 1011.4
20260509090715 8 186 0.0 0.0 0.00 0.00 0.00 84 1011.5
20260509090212 8 186 0.0 0.0 0.00 0.00 0.00 84 1011.0
20260509085710 8 186 0.0 0.0 0.00 0.00 0.00 83 1011.2
20260509085207 8 187 0.0 1.6 0.00 0.00 0.00 82 1010.9
20260509084704 8 199 1.6 3.2 0.00 0.00 0.00 80 1010.9
20260509084200 8 199 1.6 1.6 0.00 0.00 0.00 79 1010.9
20260509083659 8 198 0.0 0.0 0.00 0.00 0.00 77 1010.8
20260509083154 8 198 0.0 0.0 0.00 0.00 0.00 78 1010.7
20260509082651 8 199 1.6 1.6 0.00 0.00 0.00 79 1010.6
20260509082148 8 272 0.0 0.0 0.00 0.00 0.00 80 1010.8
20260509081645 10 272 0.0 0.0 0.00 0.00 0.00 76 1010.5
20260509081142 10 195 0.0 0.0 0.00 0.00 0.00 69 1010.3
20260509080641 10 198 1.6 1.6 0.00 0.00 0.00 69 1010.3
20260509080138 10 156 0.0 1.6 0.00 0.00 0.00 68 1010.2
20260509075636 10 156 3.2 3.2 0.00 0.00 0.00 68 1010.3
20260509075134 10 170 3.2 3.2 0.00 0.00 0.00 68 1010.0
20260509074630 10 162 3.2 3.2 0.00 0.00 0.00 68 1010.2
20260509074126 10 160 4.8 4.8 0.00 0.00 0.00 68 1010.3
20260509073623 10 164 3.2 3.2 0.00 0.00 0.00 69 1010.3
20260509073120 10 177 4.8 4.8 0.00 0.00 0.00 70 1010.4
20260509072617 10 178 3.2 4.8 0.00 0.00 0.00 70 1010.4
20260509072114 10 156 6.4 6.4 0.00 0.00 0.00 70 1010.4
20260509071610 10 190 6.4 6.4 0.00 0.00 0.00 71 1010.3
20260509071108 9 143 6.4 11.3 0.00 0.00 0.00 73 1010.2
20260509070605 8 166 4.8 6.4 0.00 0.00 0.00 75 1010.3
20260509070101 8 162 3.2 4.8 0.00 0.00 0.00 77 1010.4
20260509065556 8 178 3.2 3.2 0.00 0.00 0.00 79 1010.1
20260509065052 8 158 3.2 4.8 0.00 0.00 0.00 80 1010.2
20260509064550 8 160 3.2 3.2 0.00 0.00 0.00 80 1010.2
20260509064048 7 168 4.8 4.8 0.00 0.00 0.00 81 1010.2
20260509063544 7 359 0.0 0.0 0.00 0.00 0.00 83 1010.4
20260509063041 7 349 0.0 0.0 0.00 0.00 0.00 81 1010.3
20260509062538 7 153 3.2 3.2 0.00 0.00 0.00 82 1010.6
20260509062036 7 165 1.6 1.6 0.00 0.00 0.00 84 1010.8
20260509061532 7 152 0.0 1.6 0.00 0.00 0.00 85 1010.8
20260509061030 7 152 0.0 0.0 0.00 0.00 0.00 85 1010.9
20260509060527 7 152 0.0 0.0 0.00 0.00 0.00 85 1011.0
20260509060023 7 152 0.0 0.0 0.00 0.00 0.00 85 1011.3
20260509055518 7 152 0.0 0.0 0.00 0.00 0.00 83 1011.0
20260509055015 7 143 1.6 1.6 0.00 0.00 0.00 83 1011.0
20260509054511 7 147 1.6 1.6 0.00 0.00 0.00 84 1011.3
20260509054010 7 145 3.2 3.2 0.00 0.00 0.00 84 1011.4
20260509053508 8 137 0.0 0.0 0.00 0.00 0.00 81 1011.5
20260509053004 8 118 0.0 0.0 0.00 0.00 0.00 80 1011.5
20260509052502 8 118 0.0 0.0 0.00 0.00 0.00 80 1011.7
20260509052000 8 122 0.0 0.0 0.00 0.00 0.00 81 1011.6
20260509051457 8 121 0.0 0.0 0.00 0.00 0.00 81 1011.8
20260509050954 8 131 0.0 0.0 0.00 0.00 0.00 80 1011.7
20260509050450 9 132 0.0 0.0 0.00 0.00 0.00 80 1011.7
20260509045947 9 132 0.0 0.0 0.00 0.00 0.00 79 1012.0
20260509045445 9 132 0.0 0.0 0.00 0.00 0.00 80 1011.7
20260509044941 9 351 0.0 0.0 0.00 0.00 0.00 80 1011.6
20260509044439 9 105 0.0 0.0 0.00 0.00 0.00 78 1011.8
20260509043936 10 137 0.0 0.0 0.00 0.00 0.00 76 1011.6
20260509043432 10 91 0.0 0.0 0.00 0.00 0.00 76 1011.9
20260509042927 10 174 1.6 1.6 0.00 0.00 0.00 76 1011.7
20260509042425 10 159 3.2 3.2 0.00 0.00 0.00 76 1011.7
20260509041921 10 155 1.6 3.2 0.00 0.00 0.00 76 1011.8
20260509041418 10 142 0.0 0.0 0.00 0.00 0.00 76 1011.7
20260509040916 10 143 0.0 0.0 0.00 0.00 0.00 75 1011.8
20260509040414 9 143 0.0 0.0 0.00 0.00 0.00 78 1012.0
20260509035910 8 144 0.0 1.6 0.00 0.00 0.00 81 1012.1
20260509035407 9 149 3.2 3.2 0.00 0.00 0.00 80 1012.2
20260509034903 9 143 1.6 1.6 0.00 0.00 0.00 78 1012.1
20260509034401 9 352 0.0 0.0 0.00 0.00 0.00 78 1012.1
20260509033858 9 128 0.0 0.0 0.00 0.00 0.00 78 1012.2
20260509033355 9 128 0.0 0.0 0.00 0.00 0.00 78 1011.9
20260509032852 10 128 0.0 0.0 0.00 0.00 0.00 78 1012.0
20260509032349 10 59 0.0 0.0 0.00 0.00 0.00 76 1012.1
20260509031848 10 76 1.6 1.6 0.00 0.00 0.00 74 1011.9
20260509031344 10 168 0.0 0.0 0.00 0.00 0.00 70 1011.9
20260509030842 10 176 1.6 1.6 0.00 0.00 0.00 70 1011.9
20260509030340 10 166 1.6 1.6 0.00 0.00 0.00 72 1012.0
20260509025836 10 166 0.0 0.0 0.00 0.00 0.00 70 1012.0
20260509025331 10 166 1.6 1.6 0.00 0.00 0.00 70 1012.1
20260509024827 10 167 0.0 0.0 0.00 0.00 0.00 72 1012.1
20260509024324 11 164 1.6 1.6 0.00 0.00 0.00 68 1012.0
20260509023821 11 157 1.6 3.2 0.00 0.00 0.00 67 1012.1
20260509023318 11 179 0.0 0.0 0.00 0.00 0.00 66 1012.1
20260509022815 11 179 0.0 0.0 0.00 0.00 0.00 63 1012.0
20260509022312 11 170 1.6 3.2 0.00 0.00 0.00 64 1012.0
20260509021809 11 170 1.6 3.2 0.00 0.00 0.00 64 1012.0
20260509021306 11 173 1.6 1.6 0.00 0.00 0.00 64 1012.0
20260509020803 11 187 1.6 1.6 0.00 0.00 0.00 64 1011.9
20260509020301 11 176 3.2 3.2 0.00 0.00 0.00 65 1011.9
20260509015759 11 171 3.2 3.2 0.00 0.00 0.00 65 1012.0
20260509015257 11 192 3.2 3.2 0.00 0.00 0.00 64 1011.8
20260509014753 11 168 3.2 3.2 0.00 0.00 0.00 63 1011.8
20260509014250 11 172 1.6 3.2 0.00 0.00 0.00 63 1011.9
20260509013747 11 186 3.2 3.2 0.00 0.00 0.00 63 1012.0
20260509013242 11 164 3.2 3.2 0.00 0.00 0.00 65 1011.8
20260509012739 11 167 3.2 3.2 0.00 0.00 0.00 65 1012.0
20260509012236 11 166 0.0 0.0 0.00 0.00 0.00 69 1011.9
20260509011733 10 166 0.0 0.0 0.00 0.00 0.00 68 1012.1
20260509011231 10 166 0.0 0.0 0.00 0.00 0.00 70 1011.8
20260509010729 11 166 0.0 0.0 0.00 0.00 0.00 70 1011.8
20260509010225 11 166 0.0 0.0 0.00 0.00 0.00 69 1012.0
20260509005723 11 166 0.0 0.0 0.00 0.00 0.00 69 1011.9
20260509005220 11 166 0.0 0.0 0.00 0.00 0.00 67 1011.9
20260509004719 11 166 0.0 0.0 0.00 0.00 0.00 68 1011.6
20260509004217 11 164 3.2 3.2 0.00 0.00 0.00 66 1011.6
20260509003715 11 166 1.6 1.6 0.00 0.00 0.00 65 1011.7
20260509003213 11 168 3.2 3.2 0.00 0.00 0.00 65 1011.5
20260509002710 11 166 3.2 4.8 0.00 0.00 0.00 65 1011.7
20260509002207 11 160 1.6 1.6 0.00 0.00 0.00 63 1011.7
20260509001705 11 159 1.6 1.6 0.00 0.00 0.00 64 1011.6
20260509001200 11 136 0.0 0.0 0.00 0.00 0.00 65 1011.7
20260509000659 11 135 0.0 0.0 0.00 0.00 0.00 63 1011.7
20260509000155 11 135 0.0 0.0 0.00 0.00 0.00 62 1011.9
20260508235652 11 161 0.0 1.6 0.00 0.00 0.00 62 1011.6
20260508235149 12 143 1.6 1.6 0.00 0.00 0.00 62 1011.5
20260508234646 12 133 0.0 0.0 0.00 0.00 0.00 62 1011.7
20260508234143 12 133 0.0 0.0 0.00 0.00 0.00 61 1011.6
20260508233642 12 133 0.0 0.0 0.00 0.00 0.00 61 1011.5
20260508233140 12 133 0.0 0.0 0.00 0.00 0.00 61 1011.4
20260508232637 12 134 0.0 0.0 0.00 0.00 0.00 61 1011.3
20260508232133 12 132 0.0 1.6 0.00 0.00 0.00 66 1011.4
20260508231631 12 102 0.0 0.0 0.00 0.00 0.00 61 1011.5
20260508231128 12 102 0.0 0.0 0.00 0.00 0.00 61 1011.2
20260508230624 12 102 0.0 0.0 0.00 0.00 0.00 60 1011.3
20260508230121 12 102 0.0 0.0 0.00 0.00 0.00 60 1011.3
20260508225619 12 102 0.0 0.0 0.00 0.00 0.00 59 1011.2
20260508225115 13 101 0.0 0.0 0.00 0.00 0.00 58 1011.4
20260508224613 13 101 0.0 0.0 0.00 0.00 0.00 57 1011.3
20260508224110 13 12 0.0 0.0 0.00 0.00 0.00 55 1011.3
20260508223608 13 10 0.0 0.0 0.00 0.00 0.00 54 1011.4
20260508223105 13 123 0.0 0.0 0.00 0.00 0.00 56 1011.4
20260508222602 13 124 0.0 0.0 0.00 0.00 0.00 52 1011.6
20260508222059 14 88 1.6 3.2 0.00 0.00 0.00 53 1011.6
20260508221555 13 85 0.0 0.0 0.00 0.00 0.00 53 1011.7
20260508221051 12 113 0.0 0.0 0.00 0.00 0.00 55 1011.5
20260508220548 13 122 0.0 0.0 0.00 0.00 0.00 57 1011.6
20260508220044 13 145 1.6 1.6 0.00 0.00 0.00 55 1011.8
20260508215541 13 114 0.0 0.0 0.00 0.00 0.00 54 1011.8
20260508215038 13 133 0.0 0.0 0.00 0.00 0.00 58 1012.0
20260508214535 12 356 0.0 1.6 0.00 0.00 0.00 59 1011.9
20260508214031 12 356 1.6 1.6 0.00 0.00 0.00 58 1011.9
20260508213529 12 356 0.0 0.0 0.00 0.00 0.00 58 1012.1
20260508213024 12 308 0.0 1.6 0.00 0.00 0.00 56 1012.0
20260508212521 12 256 0.0 0.0 0.00 0.00 0.00 57 1012.1
20260508212018 12 256 0.0 0.0 0.00 0.00 0.00 58 1012.0
20260508211513 12 333 0.0 0.0 0.00 0.00 0.00 61 1012.1
20260508211010 12 333 0.0 0.0 0.00 0.00 0.00 60 1012.3
20260508210506 12 335 1.6 3.2 0.00 0.00 0.00 62 1012.4
20260508210004 12 325 0.0 0.0 0.00 0.00 0.00 61 1012.3
20260508205500 12 309 0.0 0.0 0.00 0.00 0.00 62 1012.3
20260508204957 12 286 0.0 1.6 0.00 0.00 0.00 60 1012.3
20260508204454 12 327 0.0 0.0 0.00 0.00 0.00 61 1012.5
20260508203949 12 347 1.6 1.6 0.00 0.00 0.00 59 1012.6
20260508203446 12 297 0.0 0.0 0.00 0.00 0.00 59 1012.5
20260508202941 12 258 1.6 1.6 0.00 0.00 0.00 56 1012.9
20260508202439 12 338 4.8 4.8 0.00 0.00 0.00 56 1012.7
20260508201936 12 271 1.6 1.6 0.00 0.00 0.00 57 1012.9